{"data":{"norad_id":46128,"intl_designator":"2020-057M","name":"STARLINK-1622","alt_names":[],"object_type":"PAYLOAD","status":"ACTIVE","operator":null,"country":"US","launch_date":"2020-08-18","launch_site_code":"AFETR","launch_vehicle":null,"mission":null,"orbit_class":"UNKNOWN","rcs_meters":null,"size_class":null,"mass_kg":null,"dimensions":null,"purposes":["comms"],"wikipedia_slug":null,"has_3d_model":false,"image_url":null,"decayed_at":null,"tle_current":{"epoch":"2026-07-22T02:03:48.119040Z","epoch_age_seconds":5238067,"freshness":"OLD","line1":"1 46128U 20057M   26203.08597360  .10593396  12589-4  26698-3 0  9995","line2":"2 46128  52.9918 267.4076 0005316 317.7592  42.3046 16.45705172328637","mean_motion":16.45705172,"eccentricity":0.0005316,"inclination_deg":52.9918,"raan_deg":267.4076,"arg_perigee_deg":317.7592,"mean_anomaly_deg":42.3046,"bstar":0.00026698,"rev_number":32863,"period_min":87.500484564315,"perigee_km":147.19910835369,"apogee_km":154.1405357669,"semimajor_km":6528.8068220603,"source":"CELESTRAK","updated_at":"2026-07-22T09:00:45.911983Z"}}}